Погода в Шипунихе

Россия / Алтайский край     50°56′12″N   82°22′42″E
темп.,
°C
ветер,
м/с
пор.,
м/с
влажн.,
%
обл.,
%
осадки,
мм/ч
давл.,
гПа
погр.,
м
11 мая, вт
вт1101:00+8св228444 0.1 100933
04:00+6св218846 0.1 101024
07:00+6ссв238337 0.1 1011108
10:00+11с345952 0.0 1011768
13:00+14с5639100 0.0 10121533
16:00+15ссз4534100 0.0 10122060
19:00+14с35375 0.0 10132224
22:00+8св11565 0.0 101510
12 мая, ср
ср1201:00+6в115976 0.0 101510
04:00+6св116380 0.0 101510
07:00+7ссв127494 0.1 101679
10:00+12сз355788 0.4 1015979
13:00+13ссз485398 2.3 10161733
16:00+15ссв594399 0.5 10152363
19:00+14ссз4849100 0.6 10161497
22:00+10с126988 0.2 101826
13 мая, чт
чт1301:00+6всв11845 0.2 101910
04:00+5в11835 0.0 101910
07:00+7юв117747 0.0 101836
10:00+12з3354100 0.0 1017740
13:00+15зюз444785 0.1 10161962
16:00+10ююз3680100 0.3 1016821
19:00+11юз3682100 1.1 1016711
22:00+8ю2293100 3.4 101643
14 мая, пт
пт1401:00+7юз1195100 4.0 101619
04:00+6ссв1592100 1.6 1016252
07:00+7зсз1292100 1.8 1018125
10:00+10с58688 0.2 10181261
13:00+13с574576 0.4 10191998
16:00+15с583862 0.0 10202278
19:00+13ссв47535 0.0 10221334
22:00+7св23785 0.0 102442
15 мая, сб
сб1501:00+6св2278100 0.0 102534
04:00+5св237938 0.0 102550
07:00+7ссв25755 0.0 1025113
10:00+14ссв46435 0.0 1024866
13:00+17ссв453415 0.0 10231268
16:00+18ссв45400 0.0 10221423
19:00+17ссв36525 0.0 10211015
22:00+10св22790 0.0 102235